Terminal Aerodrome Forecast
Issued by NWS

Home | Current Version | Previous Version | Text Only | Print | Product List | Glossary On
Versions: 1 2 3 4 5 6 7 8 9 10 11 12 13 14 15 16 17
026
FTAK31 PAJN 132330
TAFAJN
TAF
PAJN 132330Z 1400/1424 10011KT P6SM VCSH BKN035 OVC050
      TEMPO 1400/1402 4SM -SHRA BR BKN025 OVC035
     FM140300 10009KT P6SM -RA BKN035 OVC050
     FM140900 11010KT 3SM -RA BR BKN025 OVC035
     FM141500 10007KT 6SM -RA BR OVC025
     FM142100 08008KT P6SM -RA SCT025 OVC035=

USA.gov is the U.S. government's official web portal to all federal, state and local government web resources and services.